Location: Erp
(42.9417°N, 1.2009°E)
Time: 15:48:47
(UTC+00:00)

Cosmos 2056 Rocket - Pass Details

Date: 12 January 2026
Orbit: 738 x 795 km, 74.0° (Epoch: 18 February)

Event Time Altitude Azimuth Distance (km) Brightness Sun altitude
Rises 18:03:14 0° 213° (SSW) 3,197 7.5 -14.4°
Reaches altitude 10° 18:05:40 10° 218° (SW) 2,268 6.8 -14.9°
Maximum altitude 18:10:39 51° 294° (WNW) 938 4.3 -15.7°
Drops below altitude 10° 18:15:38 10° 11° (N) 2,259 5.7 -16.6°
Enters shadow 18:16:59 - 14° (NNE) 2,770 6.1 -16.9°
